Wind_Speed
21 21 18 15 15 17 12 12 15 16 20 23 23 25 25 25 26 26 28 31 25 23 21 23 22 25 24 14 16 16 18 15 14 19 16 15 13 12 10 10 6 4 6 7 8 9 11 11 11
19 23 19 20 16 12 14 18 18 18 21 23 25 21 21 19 25 30 34 32 26 22 20 21 20 25 17 15 14 15 18 13 13 16 13 15 14 13 9 9 8 6 8 8 9 9 10 10 10
18 21 25 20 18 17 16 15 23 21 24 25 17 16 17 27 31 37 37 31 23 18 17 17 19 23 14 15 14 16 17 13 14 19 19 18 15 14 13 12 11 11 10 10 12 9 10 10 11
15 20 21 23 20 20 22 25 25 24 21 21 19 20 24 29 38 39 32 24 21 17 17 16 17 19 13 13 16 17 15 14 14 15 17 17 17 16 15 14 14 13 13 13 12 12 12 11 10
13 15 18 21 21 23 23 25 24 20 18 18 21 23 26 35 43 38 27 22 19 13 13 14 15 14 10 13 15 14 15 17 18 17 17 18 16 17 16 16 15 13 12 11 12 15 15 15 11
14 14 15 15 14 14 19 21 24 19 15 17 21 26 34 37 44 32 26 19 18 12 12 12 16 10 9 13 13 15 16 19 21 18 17 17 18 18 17 18 18 19 20 21 20 20 20 18 17
19 19 19 16 16 13 19 20 20 18 20 20 27 31 33 44 31 29 22 17 16 11 11 11 13 9 9 15 14 16 20 22 24 23 23 22 23 25 28 29 27 27 27 29 27 27 26 26 23
23 21 21 17 17 15 15 12 5 7 14 29 24 34 37 36 32 30 19 18 16 9 10 11 9 9 11 16 16 19 25 26 27 27 28 28 29 29 30 32 34 36 37 45 45 44 43 43 45
25 25 25 22 20 17 18 13 7 15 25 26 23 38 30 35 34 26 19 17 9 11 10 9 8 9 13 20 18 22 27 28 28 29 28 25 25 25 29 33 38 34 40 41 41 43 39 38 44
30 28 30 27 26 26 21 23 29 29 32 35 39 39 29 28 25 17 15 12 7 10 11 5 7 9 12 18 20 23 27 28 26 26 25 23 24 26 28 30 30 37 34 37 38 37 36 39 40
34 32 33 32 31 32 30 29 33 34 38 34 31 26 30 21 16 19 18 12 11 8 7 4 9 10 13 19 19 22 26 25 23 24 25 25 28 32 35 35 36 30 31 33 32 36 36 38 42
37 35 37 38 38 36 37 37 38 31 23 18 18 24 25 12 20 21 19 16 14 9 4 7 12 11 15 21 21 19 22 20 24 27 26 29 33 32 29 29 31 28 28 30 33 33 37 39 42
38 36 32 30 29 28 27 23 20 17 14 16 22 25 17 13 17 22 16 14 12 8 6 11 15 14 17 22 24 17 14 16 20 24 28 30 31 31 33 32 34 31 32 26 30 33 37 41 45
26 24 20 21 22 20 18 16 16 16 13 16 15 16 15 12 15 19 13 10 7 6 9 14 17 15 18 23 22 16 14 13 18 25 26 28 27 28 29 27 31 36 35 34 35 35 40 39 41
26 27 23 25 24 25 19 19 19 17 18 16 16 10 15 10 14 16 13 8 1 6 10 16 17 15 18 23 24 15 16 16 21 23 21 21 23 25 25 24 28 31 29 30 34 38 37 37 39
30 30 30 31 29 28 23 21 21 19 17 16 17 15 14 10 11 15 10 6 5 7 15 18 18 16 16 20 22 18 20 19 22 22 18 17 20 22 20 22 25 29 28 29 31 32 32 33 38
38 38 41 37 33 29 31 25 22 22 20 18 17 17 11 13 9 14 13 4 4 8 14 20 17 16 17 19 22 21 25 22 24 22 17 16 19 18 18 21 19 23 25 26 26 28 29 31 33
50 52 51 44 38 35 35 28 23 20 20 18 17 16 14 15 12 11 18 6 4 9 15 21 18 16 20 21 26 23 26 26 25 22 17 15 15 16 15 17 18 19 21 22 23 23 27 27 27
55 52 54 48 44 37 39 33 27 21 22 20 17 15 18 12 9 10 16 9 6 12 18 20 21 19 22 22 24 23 28 27 24 21 17 14 13 11 12 15 15 15 18 19 20 20 23 23 24
56 55 53 55 51 44 43 41 31 28 25 22 18 16 19 15 13 6 10 8 5 12 17 18 21 20 22 24 25 27 27 27 25 21 16 14 12 9 10 12 12 13 13 14 14 16 18 20 24
60 57 57 60 57 52 45 39 32 35 30 23 17 17 17 10 14 7 8 7 5 10 14 19 21 21 23 26 26 27 28 27 23 20 16 12 10 8 8 10 10 11 10 9 11 13 15 20 23
62 65 65 65 59 53 48 42 39 37 34 25 21 19 17 15 14 12 10 7 12 10 14 18 22 22 23 25 25 26 29 27 24 20 16 13 10 8 7 8 8 7 7 9 10 13 16 18 20
73 70 70 70 62 56 49 43 42 38 34 32 27 22 19 14 18 19 18 10 12 14 17 17 19 24 23 25 27 28 29 28 25 22 17 14 10 7 5 6 7 5 4 6 10 13 14 17 21
80 75 73 71 63 54 45 39 42 41 43 37 28 26 24 19 18 16 20 18 11 14 16 18 18 21 24 26 29 29 29 27 26 23 19 15 11 8 5 5 5 4 1 4 8 10 13 17 20
83 81 76 71 61 42 43 38 45 46 43 40 33 28 25 21 17 20 22 20 16 14 18 18 20 20 25 28 29 30 30 27 26 24 19 16 13 10 9 8 6 5 3 5 7 11 13 16 20
88 84 76 67 58 49 46 37 44 53 44 43 36 29 23 22 19 18 20 13 18 18 19 19 23 22 26 27 27 28 31 27 25 25 21 19 16 13 12 11 9 6 6 8 9 11 12 14 18
90 81 75 75 66 58 53 46 53 49 47 43 37 29 32 30 26 24 21 23 20 17 22 22 25 25 25 24 24 27 29 27 25 23 22 21 19 17 15 14 12 9 10 11 11 12 13 14 16
92 86 86 74 68 61 55 50 55 50 50 46 40 38 37 37 31 27 27 27 24 22 23 22 26 29 26 25 26 26 27 25 25 27 24 23 23 19 18 17 13 12 14 14 14 14 15 16 19
100 93 85 80 74 65 60 53 58 60 54 51 46 42 39 39 37 33 33 32 35 29 29 28 27 29 30 29 28 29 29 28 29 29 29 27 23 22 22 19 16 15 16 14 12 14 15 16 19
107 98 91 82 71 67 64 61 65 68 60 55 49 45 42 41 39 34 30 31 29 29 30 29 30 32 32 32 33 34 33 31 30 34 33 29 26 26 25 22 19 16 15 13 12 14 16 19 21
Wind_Direction
231 228 230 254 266 275 285 267 269 300 311 310 309 316 317 318 329 337 337 335 336 335 332 338 348 352 352 21 13 13 10 9 32 30 32 41 58 65 73 82 84 57 34 13 349 343 332 326 325
238 230 233 247 254 277 261 250 265 294 307 312 316 320 326 327 337 334 330 329 327 329 330 343 357 355 5 29 13 15 13 16 41 43 46 52 56 54 59 52 38 24 24 16 6 356 348 338 330
239 235 229 244 249 254 249 250 273 288 300 311 317 317 303 325 337 332 323 322 319 319 331 353 0 359 21 23 21 17 19 27 53 55 62 61 60 64 63 54 50 49 44 27 16 13 358 358 351
231 235 232 238 248 258 269 274 280 288 298 311 288 287 293 316 330 330 325 321 312 323 335 341 2 8 31 26 34 28 29 40 69 65 56 58 67 51 54 60 46 33 24 25 33 25 20 17 21
234 231 238 244 255 262 272 273 278 281 298 317 307 298 304 311 323 329 326 311 307 324 347 358 13 20 40 46 45 43 45 68 77 70 61 68 57 52 59 54 42 35 43 39 38 29 26 22 12
233 241 248 250 252 266 270 275 271 279 294 319 316 310 321 317 322 324 325 307 299 326 334 10 21 44 55 62 60 54 61 83 80 73 71 66 61 57 56 57 57 56 53 51 45 44 41 36 26
237 239 245 253 257 263 274 289 294 273 277 313 304 313 313 330 329 326 320 316 298 312 330 1 27 62 69 73 66 69 82 84 81 82 80 80 77 77 76 68 63 62 65 59 54 47 44 45 40
243 240 240 245 253 269 290 288 211 265 298 304 289 305 310 324 323 328 326 317 311 303 334 10 47 88 86 83 86 84 88 88 90 87 87 84 85 86 76 72 65 78 76 73 71 70 64 62 58
249 246 248 249 253 267 281 268 210 295 294 304 304 308 320 320 321 331 320 315 311 314 337 19 81 108 111 93 98 92 92 91 90 89 86 81 85 86 84 78 87 84 77 74 62 62 57 56 56
249 251 255 253 262 265 259 243 273 289 297 298 296 305 307 321 326 328 327 303 280 305 329 46 108 126 129 116 110 94 95 97 95 87 82 81 79 87 92 83 84 79 78 71 62 57 53 54 52
248 251 257 260 266 265 270 264 272 280 287 286 289 293 306 321 330 335 326 318 296 310 307 118 135 138 139 135 129 107 96 96 90 87 86 84 84 91 91 85 82 74 67 59 58 55 46 53 54
255 253 255 257 260 264 266 266 270 276 277 279 291 296 302 310 324 335 327 311 293 301 262 155 149 150 145 145 140 121 103 94 92 94 93 91 92 94 83 74 68 64 69 65 58 54 50 55 55
258 258 257 259 258 255 259 265 265 263 280 301 290 297 286 322 329 337 326 305 282 261 215 161 157 155 153 154 157 138 114 100 108 101 97 94 93 90 81 73 66 69 76 68 64 52 54 56 57
248 243 235 241 247 248 252 255 263 277 284 280 290 300 288 302 324 340 325 322 299 242 196 162 163 156 163 158 163 154 130 126 124 113 105 97 92 85 78 75 69 69 71 70 61 55 56 60 56
237 241 231 236 239 245 239 252 259 265 276 286 292 288 303 287 324 339 334 336 345 181 179 164 166 158 173 168 170 166 139 135 131 120 112 100 93 85 80 74 72 72 68 69 64 60 60 62 59
235 239 239 234 236 245 247 247 256 265 271 278 280 270 293 281 317 340 343 339 49 153 162 163 169 164 175 173 173 173 155 148 139 132 120 111 94 90 87 77 73 70 64 65 68 64 64 65 60
236 240 238 239 238 239 247 246 252 261 263 268 283 288 277 272 294 351 353 353 83 143 160 163 170 168 165 160 158 155 152 157 148 141 131 115 103 93 83 80 72 71 66 63 59 63 62 62 58
233 234 238 238 237 240 248 250 254 259 266 274 282 289 272 262 273 338 346 335 194 163 175 167 167 170 159 158 158 156 153 160 153 145 135 122 111 99 86 78 80 75 73 65 56 54 60 61 58
239 239 244 245 245 243 251 254 253 257 262 269 277 281 272 251 273 302 341 338 202 172 180 175 166 174 160 161 161 156 156 162 156 149 144 133 119 107 93 79 77 77 69 62 56 47 46 48 57
235 238 242 246 247 242 246 249 253 256 258 262 269 279 282 264 247 281 331 338 158 179 176 175 169 176 171 166 171 166 166 169 164 160 159 151 134 119 99 82 78 72 68 65 60 50 43 38 35
235 235 235 238 241 243 244 249 249 251 255 260 261 265 275 274 245 249 266 307 223 228 192 175 172 182 184 171 175 176 173 178 171 174 170 166 158 137 108 92 84 81 82 68 62 48 38 30 28
236 235 233 236 238 239 241 242 245 253 257 255 248 253 263 262 273 209 252 296 266 228 214 184 178 182 187 183 177 177 179 182 181 185 187 185 176 148 121 107 105 94 68 54 44 33 25 17 16
233 231 235 235 234 236 240 242 245 251 251 247 244 245 247 258 259 221 239 260 245 230 234 211 190 182 185 191 189 185 185 189 193 195 198 201 194 170 148 130 134 120 68 24 28 25 19 14 18
232 231 234 235 233 233 239 236 246 241 243 250 250 242 243 246 247 234 230 246 241 240 234 225 208 187 190 191 202 198 196 202 210 209 208 210 209 193 196 181 164 170 129 354 10 18 14 13 19
231 232 232 234 235 229 234 232 236 237 238 243 241 243 246 250 252 245 244 245 222 245 236 246 218 199 194 200 204 208 208 207 214 220 221 217 211 215 218 210 210 221 280 327 352 3 3 8 13
229 229 229 232 231 226 224 222 232 231 228 240 241 243 244 243 250 243 234 223 233 246 240 244 247 214 199 208 208 209 217 212 214 222 225 225 223 222 230 228 225 247 284 309 334 345 342 354 359
229 229 229 226 224 220 216 209 225 228 233 236 236 230 237 235 239 236 235 230 222 236 235 235 234 222 213 208 212 212 220 214 215 221 226 231 230 228 228 227 237 254 283 298 316 320 317 330 343
228 224 226 226 225 219 217 213 222 230 229 232 233 229 231 237 236 231 218 211 218 231 239 238 233 224 221 209 215 217 221 216 213 222 224 229 232 229 225 226 238 262 275 288 300 309 320 324 334
224 223 223 221 218 215 214 211 219 231 228 231 231 231 234 234 234 235 228 226 228 238 242 237 232 231 214 211 214 222 221 218 219 224 227 232 233 229 230 230 234 251 271 284 299 311 317 324 334
222 221 220 219 215 216 215 212 218 228 226 227 228 232 233 233 235 241 241 237 235 230 227 234 226 228 223 218 215 218 224 228 225 226 231 233 234 232 236 238 243 259 271 281 297 311 318 320 325
Height
10992 10993 10994 10995 10997 10997 10996 10996 10995 10996 10994 10993 10993 10991 10990 10988 10986 10985 10983 10982 10979 10975 10972 10969 10964 10959 10955 10950 10947 10944 10941 10938 10935 10932 10929 10928 10927 10927 10928 10928 10929 10929 10930 10929 10928 10927 10927 10925 10923
10990 10992 10993 10995 10997 10996 10994 10993 10993 10993 10992 10992 10992 10990 10989 10987 10986 10983 10981 10979 10976 10973 10971 10967 10963 10959 10955 10951 10948 10945 10942 10940 10936 10934 10932 10930 10929 10928 10928 10928 10929 10929 10929 10928 10928 10927 10925 10924 10923
10989 10990 10992 10993 10994 10995 10993 10992 10991 10991 10990 10990 10990 10989 10987 10985 10983 10982 10979 10976 10973 10971 10969 10966 10962 10958 10955 10952 10949 10946 10943 10940 10937 10935 10934 10933 10933 10932 10932 10931 10929 10929 10929 10929 10929 10928 10926 10925 10924
10987 10988 10989 10990 10991 10992 10992 10989 10989 10990 10990 10989 10987 10986 10986 10984 10982 10979 10977 10974 10972 10969 10967 10964 10962 10959 10956 10953 10950 10948 10945 10942 10940 10939 10938 10936 10936 10935 10934 10934 10932 10931 10930 10929 10929 10928 10927 10925 10925
10985 10985 10986 10988 10989 10989 10988 10988 10988 10988 10988 10987 10985 10985 10986 10984 10981 10977 10975 10973 10971 10968 10966 10964 10962 10960 10958 10956 10954 10951 10948 10944 10943 10942 10941 10941 10940 10939 10938 10938 10936 10935 10934 10932 10931 10930 10927 10926 10925
10983 10983 10985 10986 10987 10987 10986 10986 10986 10987 10986 10986 10986 10985 10984 10982 10978 10975 10972 10970 10969 10967 10965 10963 10962 10961 10960 10958 10956 10953 10950 10947 10945 10944 10943 10943 10943 10943 10942 10941 10940 10938 10937 10935 10933 10932 10930 10927 10924
10979 10981 10982 10985 10986 10985 10984 10984 10984 10985 10985 10987 10986 10984 10983 10980 10976 10973 10970 10968 10967 10965 10964 10963 10963 10963 10962 10960 10958 10956 10953 10950 10948 10948 10948 10947 10946 10946 10946 10946 10944 10942 10941 10938 10935 10934 10933 10930 10926
10976 10978 10980 10982 10983 10984 10983 10983 10984 10986 10985 10986 10984 10983 10980 10978 10975 10970 10967 10967 10965 10964 10964 10963 10963 10964 10963 10961 10960 10959 10956 10953 10953 10953 10952 10952 10950 10950 10951 10950 10948 10947 10944 10943 10941 10940 10938 10934 10931
10973 10975 10977 10979 10981 10982 10983 10983 10983 10984 10984 10983 10982 10981 10978 10976 10974 10968 10966 10965 10964 10963 10963 10963 10963 10964 10965 10964 10964 10962 10960 10958 10958 10957 10957 10956 10955 10954 10954 10954 10955 10953 10950 10947 10946 10944 10941 10938 10934
10969 10973 10974 10977 10978 10980 10982 10983 10981 10982 10981 10981 10980 10979 10976 10974 10971 10968 10965 10964 10962 10962 10962 10962 10963 10965 10967 10967 10967 10967 10964 10962 10962 10961 10962 10960 10959 10958 10958 10958 10958 10957 10955 10951 10950 10948 10946 10943 10940
10964 10969 10969 10972 10974 10975 10978 10980 10978 10980 10980 10979 10979 10977 10975 10973 10970 10967 10964 10962 10961 10961 10961 10962 10963 10965 10967 10968 10969 10970 10969 10967 10966 10965 10966 10965 10963 10963 10964 10964 10964 10963 10960 10957 10955 10954 10952 10949 10945
10960 10964 10964 10966 10969 10972 10972 10974 10974 10976 10976 10975 10975 10975 10974 10972 10970 10966 10962 10960 10958 10958 10959 10961 10963 10965 10968 10968 10970 10972 10973 10972 10971 10970 10971 10970 10969 10969 10969 10969 10969 10967 10965 10964 10961 10959 10956 10952 10949
10954 10959 10959 10959 10962 10964 10965 10967 10969 10970 10972 10973 10974 10974 10971 10971 10969 10965 10960 10957 10955 10955 10957 10960 10962 10965 10968 10969 10971 10974 10976 10976 10976 10975 10976 10975 10974 10973 10973 10974 10973 10971 10970 10970 10968 10965 10962 10958 10954
10951 10953 10955 10955 10955 10959 10962 10964 10965 10967 10971 10972 10971 10972 10969 10970 10967 10963 10959 10955 10953 10953 10955 10959 10961 10965 10969 10971 10972 10976 10978 10979 10980 10979 10980 10980 10980 10978 10979 10980 10979 10977 10975 10974 10972 10971 10967 10966 10963
10948 10948 10952 10951 10953 10953 10960 10961 10963 10967 10968 10968 10969 10970 10969 10967 10966 10962 10957 10955 10952 10951 10955 10959 10961 10965 10969 10971 10973 10976 10980 10981 10983 10983 10984 10984 10984 10983 10985 10985 10984 10982 10981 10979 10978 10977 10974 10973 10970
10942 10943 10944 10946 10950 10950 10955 10958 10960 10964 10966 10967 10967 10968 10967 10966 10965 10963 10958 10957 10953 10952 10955 10959 10962 10965 10969 10971 10974 10977 10980 10983 10985 10987 10988 10988 10987 10987 10989 10989 10988 10987 10986 10986 10985 10983 10982 10979 10975
10935 10935 10933 10939 10943 10948 10948 10956 10959 10961 10963 10964 10964 10965 10965 10965 10966 10962 10959 10957 10955 10956 10957 10959 10963 10966 10970 10971 10975 10978 10980 10985 10988 10989 10991 10991 10991 10991 10992 10992 10992 10992 10991 10990 10989 10988 10986 10981 10980
10919 10919 10921 10931 10939 10942 10943 10950 10955 10958 10958 10960 10961 10962 10963 10964 10965 10962 10959 10958 10956 10957 10959 10960 10963 10968 10971 10974 10976 10979 10981 10986 10989 10991 10993 10994 10995 10995 10995 10995 10995 10996 10994 10994 10992 10992 10989 10988 10987
10909 10916 10917 10925 10932 10940 10937 10944 10950 10953 10954 10957 10959 10960 10959 10962 10964 10962 10960 10958 10956 10957 10959 10961 10963 10968 10972 10976 10979 10981 10983 10988 10990 10993 10995 10996 10996 10997 10998 10998 10998 10999 10998 10996 10995 10994 10991 10992 10991
10899 10905 10910 10913 10921 10930 10932 10936 10945 10948 10950 10953 10955 10956 10955 10959 10961 10962 10961 10961 10959 10960 10960 10963 10965 10969 10973 10977 10980 10983 10985 10990 10991 10994 10996 10998 10998 10999 10999 10999 10999 10999 10999 10999 10998 10997 10996 10995 10993
10887 10892 10895 10898 10908 10917 10925 10932 10939 10939 10945 10949 10950 10951 10953 10956 10959 10960 10961 10962 10962 10962 10961 10962 10966 10969 10973 10978 10981 10984 10987 10991 10992 10996 10997 10999 11001 11001 11001 11001 11001 11001 11002 11001 11001 11001 11000 10998 10996
10874 10870 10878 10886 10899 10910 10917 10924 10929 10933 10938 10944 10945 10948 10949 10952 10956 10958 10960 10962 10963 10964 10963 10963 10965 10969 10973 10978 10982 10985 10988 10992 10994 10997 10999 11001 11002 11002 11003 11003 11003 11003 11003 11002 11002 11003 11003 11001 10998
10843 10856 10861 10872 10890 10900 10913 10918 10922 10928 10931 10936 10940 10943 10945 10946 10951 10954 10959 10961 10963 10964 10964 10963 10964 10967 10972 10977 10982 10985 10989 10993 10996 10998 11000 11001 11002 11003 11004 11005 11004 11004 11005 11003 11004 11005 11005 11002 10999
10824 10842 10849 10860 10880 10898 10908 10916 10915 10918 10920 10929 10935 10938 10940 10943 10946 10950 10956 10958 10960 10963 10964 10964 10965 10965 10970 10974 10980 10985 10987 10992 10996 10998 11000 11001 11002 11003 11004 11005 11005 11006 11006 11005 11005 11006 11006 11004 11001
10814 10824 10837 10851 10872 10900 10899 10910 10902 10905 10913 10920 10928 10932 10936 10940 10943 10948 10953 10956 10958 10959 10961 10963 10965 10965 10968 10972 10978 10983 10986 10990 10995 10998 11000 11001 11002 11004 11005 11005 11006 11006 11007 11007 11006 11006 11005 11004 11002
10792 10803 10828 10846 10865 10882 10889 10905 10892 10890 10904 10911 10920 10926 10932 10935 10938 10943 10947 10952 10954 10958 10959 10961 10964 10965 10965 10970 10975 10981 10984 10988 10993 10997 11000 11002 11002 11003 11003 11005 11005 11006 11007 11007 11006 11007 11006 11004 11002
10778 10801 10819 10826 10844 10862 10878 10889 10873 10884 10895 10903 10911 10921 10921 10929 10933 10936 10940 10945 10949 10953 10957 10958 10962 10963 10964 10967 10974 10977 10982 10986 10990 10994 10998 11000 11001 11002 11003 11003 11004 11005 11006 11006 11006 11006 11005 11004 11003
10761 10779 10784 10816 10834 10851 10866 10878 10874 10874 10884 10891 10902 10909 10913 10918 10926 10932 10934 10938 10943 10948 10953 10956 10960 10960 10960 10964 10970 10975 10979 10984 10987 10990 10995 10997 10998 11000 11001 11002 11003 11004 11004 11006 11005 11005 11004 11002 11001
10734 10757 10776 10793 10813 10835 10850 10865 10860 10854 10870 10880 10890 10898 10905 10911 10917 10923 10928 10931 10937 10942 10947 10951 10955 10957 10958 10960 10966 10972 10975 10979 10983 10987 10990 10993 10995 10996 10997 11000 11002 11003 11003 11004 11004 11003 11003 11001 10999
10709 10735 10755 10779 10807 10823 10836 10845 10842 10836 10855 10867 10878 10887 10895 10902 10908 10915 10920 10925 10930 10936 10941 10944 10948 10951 10952 10955 10960 10966 10971 10975 10980 10982 10985 10989 10992 10992 10994 10996 10998 11000 11000 11001 11001 11001 11000 10999 10998